KC9DK Weather Reports


time (UTC)temp
C
wind
direction
speed
KPH
gust
KPH
rain 1hr
cm
rain 24hr
cm
rain mn
cm
humidity
%
barometer
mb
20260905204833 37 195 4.8 4.8 0.00 0.00 0.00 41 1011.9
20260905204329 38 232 3.2 4.8 0.00 0.00 0.00 40 1012.1
20260905203827 38 231 1.6 1.6 0.00 0.00 0.00 38 1011.9
20260905203324 38 204 4.8 4.8 0.00 0.00 0.00 36 1011.9
20260905202819 39 189 1.6 1.6 0.00 0.00 0.00 37 1012.1
20260905202314 40 197 6.4 9.7 0.00 0.00 0.00 35 1012.0
20260905201809 41 200 0.0 1.6 0.00 0.00 0.00 35 1012.2
20260905201305 40 194 0.0 1.6 0.00 0.00 0.00 35 1012.2
20260905200759 40 183 4.8 4.8 0.00 0.00 0.00 35 1012.5
20260905200255 40 193 1.6 3.2 0.00 0.00 0.00 38 1012.2
20260905195753 40 185 0.0 1.6 0.00 0.00 0.00 35 1012.4
20260905195248 39 196 1.6 3.2 0.00 0.00 0.00 39 1012.4
20260905194744 40 232 4.8 4.8 0.00 0.00 0.00 35 1012.3
20260905194243 40 237 4.8 4.8 0.00 0.00 0.00 36 1012.6
20260905193743 39 201 1.6 3.2 0.00 0.00 0.00 37 1012.3
20260905193238 39 219 6.4 8.0 0.00 0.00 0.00 35 1012.6
20260905192733 40 267 8.0 11.3 0.00 0.00 0.00 35 1012.9
20260905192230 40 213 1.6 1.6 0.00 0.00 0.00 39 1012.8
20260905191729 40 210 4.8 4.8 0.00 0.00 0.00 35 1012.8
20260905191227 40 213 4.8 8.0 0.00 0.00 0.00 35 1013.0
20260905190726 40 191 1.6 1.6 0.00 0.00 0.00 39 1013.2
20260905190225 39 172 3.2 3.2 0.00 0.00 0.00 36 1013.3
20260905185724 40 216 1.6 3.2 0.00 0.00 0.00 39 1013.1
20260905185219 39 199 3.2 3.2 0.00 0.00 0.00 39 1013.4
20260905184719 38 218 4.8 4.8 0.00 0.00 0.00 40 1013.2
20260905184218 38 193 3.2 3.2 0.00 0.00 0.00 40 1013.3
20260905183712 38 214 1.6 1.6 0.00 0.00 0.00 41 1013.4
20260905183207 39 212 1.6 3.2 0.00 0.00 0.00 37 1013.4
20260905182707 39 190 1.6 3.2 0.00 0.00 0.00 40 1013.4
20260905182206 39 186 0.0 1.6 0.00 0.00 0.00 41 1013.6
20260905181702 38 235 3.2 3.2 0.00 0.00 0.00 40 1013.6
20260905181201 38 185 1.6 3.2 0.00 0.00 0.00 44 1013.6
20260905180655 38 33 3.2 3.2 0.00 0.00 0.00 43 1013.7
20260905180151 38 98 1.6 1.6 0.00 0.00 0.00 39 1013.8
20260905175650 37 184 1.6 1.6 0.00 0.00 0.00 43 1013.9
20260905175146 37 231 4.8 8.0 0.00 0.00 0.00 40 1013.9
20260905174641 37 204 4.8 4.8 0.00 0.00 0.00 44 1014.0
20260905174137 37 187 1.6 1.6 0.00 0.00 0.00 47 1013.8
20260905173632 37 179 0.0 0.0 0.00 0.00 0.00 46 1013.8
20260905173128 37 190 1.6 3.2 0.00 0.00 0.00 44 1014.0
20260905172627 37 206 3.2 3.2 0.00 0.00 0.00 46 1014.4
20260905172122 37 189 1.6 1.6 0.00 0.00 0.00 46 1014.3
20260905171618 37 188 3.2 3.2 0.00 0.00 0.00 48 1014.2
20260905171114 37 205 1.6 3.2 0.00 0.00 0.00 45 1014.3
20260905170610 37 184 3.2 3.2 0.00 0.00 0.00 45 1014.3
20260905170105 38 186 3.2 3.2 0.00 0.00 0.00 41 1014.4
20260905165600 37 182 1.6 1.6 0.00 0.00 0.00 47 1014.7
20260905165055 38 293 4.8 8.0 0.00 0.00 0.00 42 1014.6
20260905164550 37 182 0.0 0.0 0.00 0.00 0.00 49 1014.5
20260905164044 37 262 1.6 3.2 0.00 0.00 0.00 46 1014.7
20260905163540 37 175 1.6 1.6 0.00 0.00 0.00 50 1014.8
20260905163036 37 172 1.6 1.6 0.00 0.00 0.00 49 1014.9
20260905162532 36 201 1.6 1.6 0.00 0.00 0.00 50 1015.2
20260905162021 37 304 4.8 8.0 0.00 0.00 0.00 45 1015.3
20260905161521 37 197 3.2 3.2 0.00 0.00 0.00 49 1015.1
20260905161018 37 194 4.8 4.8 0.00 0.00 0.00 49 1015.2
20260905160512 37 170 1.6 3.2 0.00 0.00 0.00 53 1015.2
20260905160011 37 187 0.0 0.0 0.00 0.00 0.00 52 1015.2
20260905155506 37 199 1.6 3.2 0.00 0.00 0.00 49 1015.4
20260905155004 37 184 1.6 1.6 0.00 0.00 0.00 48 1015.4
20260905154500 37 174 0.0 1.6 0.00 0.00 0.00 49 1015.2
20260905153955 37 197 1.6 1.6 0.00 0.00 0.00 52 1015.3
20260905153452 37 208 4.8 4.8 0.00 0.00 0.00 51 1015.3
20260905152951 36 182 0.0 0.0 0.00 0.00 0.00 56 1015.2
20260905152451 35 209 1.6 1.6 0.00 0.00 0.00 56 1015.3
20260905151946 35 236 1.6 1.6 0.00 0.00 0.00 54 1015.1
20260905151441 35 200 1.6 1.6 0.00 0.00 0.00 52 1015.2
20260905150936 35 180 0.0 0.0 0.00 0.00 0.00 57 1015.2
20260905150437 35 184 0.0 0.0 0.00 0.00 0.00 57 1015.3
20260905145933 34 188 1.6 1.6 0.00 0.00 0.00 57 1015.3
20260905145427 33 233 0.0 1.6 0.00 0.00 0.00 60 1015.2
20260905144927 33 185 0.0 0.0 0.00 0.00 0.00 63 1015.2
20260905144423 34 207 4.8 8.0 0.00 0.00 0.00 56 1015.3
20260905143921 33 184 0.0 0.0 0.00 0.00 0.00 62 1015.2
20260905143415 33 188 1.6 3.2 0.00 0.00 0.00 59 1015.0
20260905142915 32 185 0.0 0.0 0.00 0.00 0.00 65 1015.3
20260905142414 31 221 1.6 3.2 0.00 0.00 0.00 66 1015.2
20260905141910 31 193 1.6 1.6 0.00 0.00 0.00 67 1015.3
20260905141405 31 186 0.0 1.6 0.00 0.00 0.00 69 1015.2
20260905140901 30 190 1.6 1.6 0.00 0.00 0.00 68 1015.0
20260905140355 31 193 3.2 3.2 0.00 0.00 0.00 68 1015.1
20260905135854 31 183 1.6 1.6 0.00 0.00 0.00 68 1015.4
20260905135350 31 186 0.0 1.6 0.00 0.00 0.00 68 1015.3
20260905134846 31 188 1.6 1.6 0.00 0.00 0.00 67 1015.4
20260905134344 31 187 0.0 0.0 0.00 0.00 0.00 67 1015.3
20260905133839 31 196 0.0 0.0 0.00 0.00 0.00 66 1015.3
20260905133334 31 181 0.0 0.0 0.00 0.00 0.00 65 1015.7
20260905132833 31 178 0.0 0.0 0.00 0.00 0.00 65 1015.5
20260905132329 31 178 0.0 0.0 0.00 0.00 0.00 65 1015.4
20260905131823 31 180 0.0 0.0 0.00 0.00 0.00 68 1015.5
20260905131319 31 175 0.0 0.0 0.00 0.00 0.00 67 1015.4
20260905130814 30 180 0.0 0.0 0.00 0.00 0.00 69 1015.4
20260905130312 30 180 0.0 0.0 0.00 0.00 0.00 71 1015.5
20260905125808 30 186 0.0 0.0 0.00 0.00 0.00 70 1015.4
20260905125305 30 187 0.0 0.0 0.00 0.00 0.00 72 1015.4
20260905124759 30 187 0.0 0.0 0.00 0.00 0.00 71 1015.5
20260905124255 29 187 0.0 0.0 0.00 0.00 0.00 74 1015.3
20260905123750 27 187 0.0 0.0 0.00 0.00 0.00 76 1015.4
20260905123247 27 187 0.0 0.0 0.00 0.00 0.00 79 1015.4
20260905122747 26 187 0.0 0.0 0.00 0.00 0.00 80 1015.4
20260905122246 26 172 0.0 0.0 0.00 0.00 0.00 81 1015.3
20260905121741 25 165 0.0 0.0 0.00 0.00 0.00 82 1015.3
20260905121238 25 172 0.0 0.0 0.00 0.00 0.00 85 1015.3
20260905120736 25 176 0.0 0.0 0.00 0.00 0.00 85 1015.2
20260905120231 25 176 0.0 0.0 0.00 0.00 0.00 86 1015.1
20260905115726 25 176 0.0 0.0 0.00 0.00 0.00 85 1014.9
20260905115225 25 176 0.0 0.0 0.00 0.00 0.00 85 1015.2
20260905114721 25 176 0.0 0.0 0.00 0.00 0.00 84 1015.0
20260905114219 25 176 0.0 0.0 0.00 0.00 0.00 84 1015.1
20260905113719 25 176 0.0 0.0 0.00 0.00 0.00 84 1014.9
20260905113215 25 176 0.0 0.0 0.00 0.00 0.00 84 1014.8
20260905112715 25 176 0.0 0.0 0.00 0.00 0.00 83 1014.6
20260905112210 25 176 0.0 0.0 0.00 0.00 0.00 83 1014.7
20260905111709 25 176 0.0 0.0 0.00 0.00 0.00 83 1014.7
20260905111209 25 175 0.0 0.0 0.00 0.00 0.00 84 1014.8
20260905110709 25 175 0.0 0.0 0.00 0.00 0.00 83 1014.7
20260905110203 25 165 0.0 0.0 0.00 0.00 0.00 82 1014.7
20260905105659 25 154 0.0 0.0 0.00 0.00 0.00 83 1014.8
20260905105157 25 176 0.0 0.0 0.00 0.00 0.00 82 1014.5
20260905104652 25 176 0.0 0.0 0.00 0.00 0.00 82 1014.7
20260905104149 25 176 0.0 0.0 0.00 0.00 0.00 82 1014.5
20260905103643 25 176 0.0 0.0 0.00 0.00 0.00 82 1014.5
20260905103139 25 176 0.0 0.0 0.00 0.00 0.00 82 1014.4
20260905102635 25 176 0.0 0.0 0.00 0.00 0.00 83 1014.4
20260905102131 25 176 0.0 0.0 0.00 0.00 0.00 85 1014.7
20260905101629 25 176 0.0 0.0 0.00 0.00 0.00 83 1014.7
20260905101128 25 169 0.0 0.0 0.00 0.00 0.00 82 1014.5
20260905100625 25 169 0.0 0.0 0.00 0.00 0.00 82 1014.5
20260905100120 25 167 0.0 0.0 0.00 0.00 0.00 82 1014.5
20260905095619 25 162 0.0 0.0 0.00 0.00 0.00 84 1014.3
20260905095114 25 168 0.0 0.0 0.00 0.00 0.00 84 1014.4
20260905094610 25 175 0.0 0.0 0.00 0.00 0.00 84 1014.2
20260905094108 25 187 0.0 0.0 0.00 0.00 0.00 85 1014.3
20260905093603 25 187 0.0 0.0 0.00 0.00 0.00 85 1014.1
20260905093059 25 187 0.0 0.0 0.00 0.00 0.00 85 1014.2
20260905092559 25 187 0.0 0.0 0.00 0.00 0.00 84 1014.1
20260905092055 25 194 0.0 0.0 0.00 0.00 0.00 83 1014.0
20260905091554 25 194 0.0 1.6 0.00 0.00 0.00 83 1014.1
20260905091049 25 201 1.6 1.6 0.00 0.00 0.00 83 1014.2
20260905090549 25 200 0.0 1.6 0.00 0.00 0.00 84 1014.0
20260905090044 25 192 0.0 0.0 0.00 0.00 0.00 85 1014.1
20260905085542 25 189 0.0 1.6 0.00 0.00 0.00 86 1013.9
20260905085038 25 187 0.0 0.0 0.00 0.00 0.00 84 1014.0
20260905084538 25 186 0.0 0.0 0.00 0.00 0.00 84 1014.0
20260905084033 25 186 0.0 0.0 0.00 0.00 0.00 84 1014.0
20260905083528 26 186 0.0 0.0 0.00 0.00 0.00 83 1014.1
20260905083025 26 187 0.0 0.0 0.00 0.00 0.00 82 1014.0
20260905082519 26 193 1.6 1.6 0.00 0.00 0.00 81 1014.1
20260905082015 25 191 1.6 1.6 0.00 0.00 0.00 82 1014.1
20260905081509 25 185 1.6 1.6 0.00 0.00 0.00 84 1014.2
20260905081003 25 176 0.0 0.0 0.00 0.00 0.00 85 1014.1
20260905080458 25 176 0.0 0.0 0.00 0.00 0.00 85 1014.3
20260905075956 25 176 0.0 0.0 0.00 0.00 0.00 86 1014.4
20260905075451 25 176 0.0 0.0 0.00 0.00 0.00 85 1014.4
20260905074950 26 169 0.0 0.0 0.00 0.00 0.00 83 1014.1
20260905074446 26 169 0.0 0.0 0.00 0.00 0.00 82 1014.0
20260905073941 26 169 0.0 0.0 0.00 0.00 0.00 82 1014.1
20260905073436 26 169 0.0 0.0 0.00 0.00 0.00 81 1014.4
20260905072932 26 169 0.0 0.0 0.00 0.00 0.00 81 1014.5
20260905072426 26 185 0.0 0.0 0.00 0.00 0.00 82 1014.5
20260905071917 26 191 0.0 0.0 0.00 0.00 0.00 82 1014.5
20260905071414 26 191 0.0 0.0 0.00 0.00 0.00 83 1014.5
20260905070913 25 191 0.0 0.0 0.00 0.00 0.00 83 1014.4
20260905070409 25 189 0.0 0.0 0.00 0.00 0.00 85 1014.4
20260905065909 26 187 0.0 0.0 0.00 0.00 0.00 85 1014.8
20260905065407 26 187 0.0 0.0 0.00 0.00 0.00 84 1014.4
20260905064903 26 187 0.0 0.0 0.00 0.00 0.00 82 1014.6
20260905064358 26 190 0.0 0.0 0.00 0.00 0.00 81 1014.5
20260905063856 26 198 0.0 0.0 0.00 0.00 0.00 82 1014.7
20260905063352 26 187 0.0 0.0 0.00 0.00 0.00 83 1014.4
20260905062848 26 187 0.0 0.0 0.00 0.00 0.00 83 1014.6
20260905062343 26 187 0.0 0.0 0.00 0.00 0.00 83 1014.5
20260905061837 26 187 0.0 0.0 0.00 0.00 0.00 83 1014.6
20260905061332 26 187 0.0 0.0 0.00 0.00 0.00 82 1015.0
20260905060826 26 187 0.0 0.0 0.00 0.00 0.00 81 1014.7
20260905060323 26 187 0.0 0.0 0.00 0.00 0.00 81 1014.9
20260905055822 26 187 0.0 0.0 0.00 0.00 0.00 83 1014.7
20260905055317 26 188 1.6 1.6 0.00 0.00 0.00 82 1014.7
20260905054817 26 188 0.0 0.0 0.00 0.00 0.00 82 1014.6
20260905054313 26 188 0.0 0.0 0.00 0.00 0.00 82 1014.7
20260905053812 26 188 0.0 0.0 0.00 0.00 0.00 82 1014.5
20260905053308 26 189 0.0 0.0 0.00 0.00 0.00 82 1015.0
20260905052808 26 189 0.0 0.0 0.00 0.00 0.00 82 1014.8
20260905052306 27 188 0.0 0.0 0.00 0.00 0.00 81 1014.7
20260905051802 27 188 0.0 0.0 0.00 0.00 0.00 78 1015.1
20260905051258 27 188 0.0 0.0 0.00 0.00 0.00 78 1014.7
20260905050755 27 185 0.0 0.0 0.00 0.00 0.00 80 1014.7
20260905050251 27 185 0.0 0.0 0.00 0.00 0.00 78 1014.6
20260905045745 27 199 1.6 1.6 0.00 0.00 0.00 75 1014.6
20260905045241 26 214 1.6 1.6 0.00 0.00 0.00 78 1014.7
20260905044735 26 186 0.0 0.0 0.00 0.00 0.00 81 1014.9
20260905044231 26 177 0.0 0.0 0.00 0.00 0.00 81 1014.8
20260905043729 26 177 0.0 0.0 0.00 0.00 0.00 81 1014.7
20260905043224 27 177 0.0 0.0 0.00 0.00 0.00 80 1014.9
20260905042719 27 177 0.0 0.0 0.00 0.00 0.00 80 1014.9
20260905042218 27 177 0.0 0.0 0.00 0.00 0.00 79 1014.9
20260905041714 27 177 0.0 0.0 0.00 0.00 0.00 78 1014.9
20260905041209 27 177 0.0 0.0 0.00 0.00 0.00 78 1014.6
20260905040704 27 177 0.0 0.0 0.00 0.00 0.00 78 1014.8
20260905040203 27 177 0.0 0.0 0.00 0.00 0.00 76 1014.9
20260905035703 27 177 0.0 0.0 0.00 0.00 0.00 76 1014.7
20260905035200 27 177 0.0 0.0 0.00 0.00 0.00 75 1014.8
20260905034656 27 176 0.0 0.0 0.00 0.00 0.00 75 1014.9
20260905034155 27 176 0.0 0.0 0.00 0.00 0.00 76 1014.9
20260905033654 27 185 0.0 1.6 0.00 0.00 0.00 76 1014.8
20260905033150 27 177 0.0 0.0 0.00 0.00 0.00 76 1015.1
20260905032649 27 177 0.0 0.0 0.00 0.00 0.00 76 1014.9
20260905032144 27 170 0.0 0.0 0.00 0.00 0.00 75 1015.2
20260905031640 27 170 0.0 1.6 0.00 0.00 0.00 76 1015.1
20260905031135 27 173 0.0 0.0 0.00 0.00 0.00 76 1015.0
20260905030630 27 170 0.0 0.0 0.00 0.00 0.00 77 1015.1
20260905030126 27 164 0.0 1.6 0.00 0.00 0.00 77 1015.0
20260905025620 27 164 0.0 1.6 0.00 0.00 0.00 76 1015.0
20260905025116 27 165 0.0 0.0 0.00 0.00 0.00 75 1014.9
20260905024612 28 164 1.6 1.6 0.00 0.00 0.00 76 1014.8
20260905024107 28 172 0.0 0.0 0.00 0.00 0.00 75 1014.8
20260905023602 28 184 0.0 0.0 0.00 0.00 0.00 74 1014.7
20260905023056 28 184 0.0 0.0 0.00 0.00 0.00 74 1014.9
20260905022555 28 184 0.0 0.0 0.00 0.00 0.00 76 1014.9
20260905022051 28 184 0.0 0.0 0.00 0.00 0.00 77 1015.0
20260905021550 28 184 0.0 0.0 0.00 0.00 0.00 76 1014.9
20260905021046 28 181 0.0 0.0 0.00 0.00 0.00 75 1014.8
20260905020545 28 180 0.0 0.0 0.00 0.00 0.00 73 1014.9
20260905020041 28 180 0.0 0.0 0.00 0.00 0.00 72 1014.8
20260905015539 28 180 0.0 0.0 0.00 0.00 0.00 73 1014.7
20260905015034 29 177 0.0 0.0 0.00 0.00 0.00 72 1014.7
20260905014528 29 176 0.0 0.0 0.00 0.00 0.00 70 1014.4
20260905014024 29 176 0.0 0.0 0.00 0.00 0.00 70 1014.5
20260905013520 29 177 0.0 0.0 0.00 0.00 0.00 70 1014.3
20260905013016 29 177 0.0 0.0 0.00 0.00 0.00 71 1014.4
20260905012515 29 177 0.0 0.0 0.00 0.00 0.00 70 1014.5
20260905012013 29 177 0.0 0.0 0.00 0.00 0.00 70 1014.0
20260905011508 30 177 0.0 0.0 0.00 0.00 0.00 69 1014.4
20260905011004 30 177 0.0 0.0 0.00 0.00 0.00 67 1014.3
20260905010503 30 177 0.0 0.0 0.00 0.00 0.00 67 1014.3
20260905005959 30 177 0.0 0.0 0.00 0.00 0.00 64 1014.3
20260905005455 30 177 0.0 0.0 0.00 0.00 0.00 65 1014.1
20260905004950 30 177 0.0 0.0 0.00 0.00 0.00 67 1014.2
20260905004445 30 177 0.0 0.0 0.00 0.00 0.00 63 1014.0
20260905003940 30 175 0.0 0.0 0.00 0.00 0.00 65 1014.1
20260905003436 30 174 0.0 0.0 0.00 0.00 0.00 66 1014.2
20260905002932 31 172 0.0 0.0 0.00 0.00 0.00 65 1014.0
20260905002432 31 172 0.0 0.0 0.00 0.00 0.00 66 1014.1
20260905001925 31 177 0.0 0.0 0.00 0.00 0.00 65 1014.1
20260905001420 31 174 0.0 0.0 0.00 0.00 0.00 65 1014.3
20260905000915 31 170 0.0 0.0 0.00 0.00 0.00 66 1014.1
20260905000411 31 169 0.0 0.0 0.00 0.00 0.00 67 1014.2
20260904235906 32 169 0.0 0.0 0.00 0.00 0.00 66 1014.1
20260904235401 32 165 0.0 0.0 0.00 0.00 0.00 65 1014.1
20260904234856 32 168 0.0 0.0 0.00 0.00 0.00 62 1014.0
20260904234350 33 169 0.0 0.0 0.00 0.00 0.00 63 1014.0
20260904233846 33 169 0.0 0.0 0.00 0.00 0.00 61 1013.9
20260904233342 33 169 0.0 0.0 0.00 0.00 0.00 57 1014.0
20260904232839 33 180 0.0 0.0 0.00 0.00 0.00 57 1013.8
20260904232335 34 177 0.0 0.0 0.00 0.00 0.00 56 1013.9
20260904231831 35 177 0.0 0.0 0.00 0.00 0.00 55 1013.7
20260904231330 35 177 0.0 0.0 0.00 0.00 0.00 56 1013.7
20260904230826 35 177 0.0 0.0 0.00 0.00 0.00 52 1013.8
20260904230325 35 176 0.0 0.0 0.00 0.00 0.00 49 1014.2
20260904225820 36 173 0.0 0.0 0.00 0.00 0.00 49 1013.7
20260904225318 36 187 0.0 0.0 0.00 0.00 0.00 47 1013.8
20260904224818 36 197 1.6 1.6 0.00 0.00 0.00 45 1013.7
20260904224314 36 177 0.0 0.0 0.00 0.00 0.00 51 1013.5
20260904223812 36 177 0.0 0.0 0.00 0.00 0.00 52 1013.7
20260904223307 36 162 0.0 1.6 0.00 0.00 0.00 49 1013.6
20260904222804 36 171 0.0 0.0 0.00 0.00 0.00 44 1013.7
20260904222258 36 170 0.0 0.0 0.00 0.00 0.00 44 1013.5
20260904221753 36 184 0.0 0.0 0.00 0.00 0.00 49 1013.8
20260904221247 36 190 0.0 0.0 0.00 0.00 0.00 49 1013.6
20260904220743 36 193 1.6 1.6 0.00 0.00 0.00 44 1013.5
20260904220242 36 208 1.6 1.6 0.00 0.00 0.00 45 1013.8
20260904215737 36 194 0.0 1.6 0.00 0.00 0.00 47 1013.9
20260904215233 36 176 1.6 1.6 0.00 0.00 0.00 45 1013.8
20260904214728 36 192 1.6 1.6 0.00 0.00 0.00 46 1014.0
20260904214224 36 191 1.6 1.6 0.00 0.00 0.00 48 1014.0
20260904213722 36 177 0.0 0.0 0.00 0.00 0.00 48 1014.1
20260904213219 36 188 3.2 3.2 0.00 0.00 0.00 52 1014.0
20260904212719 36 185 0.0 1.6 0.00 0.00 0.00 52 1014.3
20260904212214 35 250 1.6 1.6 0.00 0.00 0.00 45 1014.2
20260904211713 35 125 0.0 0.0 0.00 0.00 0.00 51 1014.4
20260904211208 35 186 0.0 0.0 0.00 0.00 0.00 54 1014.6
20260904210703 35 193 0.0 1.6 0.00 0.00 0.00 48 1014.7
20260904210158 36 189 3.2 3.2 0.00 0.00 0.00 45 1014.6
20260904205654 37 189 1.6 1.6 0.00 0.00 0.00 48 1014.6
20260904205150 37 204 1.6 1.6 0.00 0.00 0.00 44 1014.4